DZH103 DAAG-DABC

Flight info

Callsign DZH103
Flight time 0h 41m
Altitude 23000
Route BABOR1B BABOR UA31 CSO
Aircraft A20N/M-SDE2E3FGHIRWXY/LB1

Departure

Time 2026-05-06 07:34
Airport Houari Boumediene Airport (DAAG)

Arrival

Time 2026-05-06 08:15
Airport Mohamed Boudiaf International Airport (DABC)
Time Latitude Longitude Altitude Speed Heading
2026-05-06 07:13 36.69679 3.20274 56 ft 0 kts 271°
2026-05-06 07:23 36.69679 3.20279 58 ft 1 kts 272°
2026-05-06 07:24 36.69680 3.20297 58 ft 2 kts 251°
2026-05-06 07:24 36.69687 3.20314 59 ft 2 kts 234°
2026-05-06 07:24 36.69697 3.20327 59 ft 2 kts 217°
2026-05-06 07:24 36.69710 3.20337 60 ft 2 kts 199°
2026-05-06 07:25 36.69723 3.20340 61 ft 0 kts 184°
2026-05-06 07:25 36.69729 3.20341 61 ft 1 kts 180°
2026-05-06 07:25 36.69730 3.20341 61 ft 0 kts 180°
2026-05-06 07:28 36.69684 3.20339 59 ft 7 kts 181°
2026-05-06 07:29 36.69621 3.20332 58 ft 10 kts 203°
2026-05-06 07:29 36.69550 3.20295 57 ft 11 kts 185°
2026-05-06 07:29 36.69474 3.20291 59 ft 9 kts 181°
2026-05-06 07:29 36.69445 3.20335 59 ft 8 kts 98°
2026-05-06 07:30 36.69445 3.20411 60 ft 9 kts 90°
2026-05-06 07:30 36.69444 3.20481 60 ft 9 kts 91°
2026-05-06 07:30 36.69442 3.20569 60 ft 10 kts 93°
2026-05-06 07:30 36.69437 3.20672 59 ft 12 kts 91°
2026-05-06 07:31 36.69435 3.20772 59 ft 10 kts 91°
2026-05-06 07:31 36.69416 3.20853 61 ft 9 kts 134°
2026-05-06 07:31 36.69363 3.20887 63 ft 7 kts 162°
2026-05-06 07:31 36.69316 3.20905 64 ft 6 kts 162°
2026-05-06 07:32 36.69272 3.20924 65 ft 6 kts 160°
2026-05-06 07:32 36.69230 3.20943 66 ft 6 kts 160°
2026-05-06 07:32 36.69183 3.20963 67 ft 7 kts 161°
2026-05-06 07:32 36.69134 3.20981 67 ft 5 kts 180°
2026-05-06 07:33 36.69120 3.20950 67 ft 5 kts 266°
2026-05-06 07:33 36.69120 3.20934 67 ft 6 kts 272°
2026-05-06 07:33 36.69130 3.20543 68 ft 82 kts 271°
2026-05-06 07:33 36.69158 3.19540 64 ft 147 kts 272°
2026-05-06 07:34 36.69195 3.18089 398 ft 171 kts 272°
2026-05-06 07:34 36.69236 3.16703 1254 ft 161 kts 272°
2026-05-06 07:34 36.69250 3.15278 1816 ft 174 kts 271°
2026-05-06 07:34 36.69257 3.13704 2309 ft 190 kts 272°
2026-05-06 07:35 36.69270 3.12004 2794 ft 207 kts 272°
2026-05-06 07:35 36.69292 3.10116 3199 ft 231 kts 272°
2026-05-06 07:35 36.69259 3.08047 3737 ft 250 kts 261°
2026-05-06 07:35 36.68478 3.06060 4272 ft 268 kts 224°
2026-05-06 07:36 36.66882 3.04921 5092 ft 272 kts 192°
2026-05-06 07:36 36.65039 3.04986 6044 ft 271 kts 161°
2026-05-06 07:36 36.63474 3.06265 6984 ft 274 kts 131°
2026-05-06 07:36 36.62641 3.08360 7804 ft 283 kts 102°
2026-05-06 07:37 36.62617 3.10843 8586 ft 292 kts 88°
2026-05-06 07:37 36.62756 3.13379 9337 ft 300 kts 88°
2026-05-06 07:37 36.62891 3.15975 10082 ft 306 kts 89°
2026-05-06 07:37 36.63028 3.18671 10667 ft 319 kts 88°
2026-05-06 07:38 36.63169 3.21471 11067 ft 336 kts 88°
2026-05-06 07:38 36.63320 3.24437 11622 ft 348 kts 88°
2026-05-06 07:38 36.63477 3.27448 12352 ft 353 kts 87°
2026-05-06 07:38 36.63638 3.30536 13097 ft 357 kts 87°
2026-05-06 07:39 36.63798 3.33629 13869 ft 360 kts 87°
2026-05-06 07:39 36.63957 3.36686 14633 ft 360 kts 87°
2026-05-06 07:39 36.64119 3.39820 15335 ft 365 kts 88°
2026-05-06 07:39 36.64282 3.42992 15979 ft 370 kts 88°
2026-05-06 07:40 36.64443 3.46185 16638 ft 374 kts 88°
2026-05-06 07:40 36.64604 3.49410 17277 ft 377 kts 88°
2026-05-06 07:40 36.64767 3.52695 17915 ft 382 kts 88°
2026-05-06 07:40 36.64924 3.55976 18533 ft 385 kts 89°
2026-05-06 07:41 36.64942 3.59327 19181 ft 387 kts 94°
2026-05-06 07:41 36.64734 3.62656 19827 ft 388 kts 99°
2026-05-06 07:41 36.64379 3.65965 20419 ft 391 kts 101°
2026-05-06 07:41 36.63987 3.69345 21027 ft 395 kts 101°
2026-05-06 07:42 36.63593 3.72714 21589 ft 398 kts 101°
2026-05-06 07:42 36.63198 3.76112 22134 ft 402 kts 101°
2026-05-06 07:42 36.62799 3.79558 22665 ft 405 kts 101°
2026-05-06 07:42 36.62394 3.83061 22935 ft 407 kts 101°
2026-05-06 07:43 36.61995 3.86534 22947 ft 407 kts 101°
2026-05-06 07:43 36.61598 3.90010 22952 ft 406 kts 101°
2026-05-06 07:43 36.61198 3.93478 22955 ft 406 kts 101°
2026-05-06 07:43 36.60797 3.96965 22958 ft 407 kts 101°
2026-05-06 07:44 36.60396 4.00415 22956 ft 406 kts 101°
2026-05-06 07:44 36.59992 4.03901 22962 ft 406 kts 101°
2026-05-06 07:44 36.59589 4.07361 22960 ft 407 kts 101°
2026-05-06 07:44 36.59180 4.10866 22958 ft 407 kts 101°
2026-05-06 07:45 36.58777 4.14321 22965 ft 407 kts 101°
2026-05-06 07:45 36.58372 4.17784 22970 ft 406 kts 101°
2026-05-06 07:45 36.57964 4.21253 22972 ft 406 kts 101°
2026-05-06 07:45 36.57554 4.24719 22970 ft 406 kts 101°
2026-05-06 07:46 36.57144 4.28178 22968 ft 407 kts 102°
2026-05-06 07:46 36.56731 4.31672 22972 ft 407 kts 102°
2026-05-06 07:46 36.56324 4.35112 22971 ft 407 kts 102°
2026-05-06 07:46 36.55906 4.38605 22968 ft 407 kts 102°
2026-05-06 07:47 36.55492 4.42081 22970 ft 407 kts 102°
2026-05-06 07:47 36.55078 4.45548 22970 ft 406 kts 102°
2026-05-06 07:47 36.54663 4.49006 22975 ft 406 kts 102°
2026-05-06 07:47 36.54245 4.52485 22968 ft 407 kts 102°
2026-05-06 07:48 36.53830 4.55928 22971 ft 406 kts 102°
2026-05-06 07:48 36.53409 4.59413 22974 ft 407 kts 102°
2026-05-06 07:48 36.52987 4.62896 22974 ft 406 kts 102°
2026-05-06 07:48 36.52569 4.66347 22973 ft 406 kts 103°
2026-05-06 07:49 36.52148 4.69808 22975 ft 406 kts 102°
2026-05-06 07:49 36.51725 4.73266 22983 ft 407 kts 103°
2026-05-06 07:49 36.51301 4.76736 22977 ft 407 kts 103°
2026-05-06 07:49 36.50878 4.80190 22979 ft 406 kts 103°
2026-05-06 07:50 36.50456 4.83635 22979 ft 406 kts 103°
2026-05-06 07:50 36.50028 4.87117 22977 ft 405 kts 103°
2026-05-06 07:50 36.49604 4.90550 22984 ft 405 kts 103°
2026-05-06 07:50 36.49178 4.93997 22980 ft 405 kts 103°
2026-05-06 07:51 36.48742 4.97498 22981 ft 405 kts 103°
2026-05-06 07:51 36.48319 5.00925 22987 ft 404 kts 102°
2026-05-06 07:51 36.47913 5.04366 22988 ft 404 kts 103°
2026-05-06 07:51 36.47519 5.07799 22995 ft 405 kts 102°
2026-05-06 07:52 36.47123 5.11235 22995 ft 403 kts 102°
2026-05-06 07:52 36.46724 5.14676 22997 ft 404 kts 102°
2026-05-06 07:52 36.46321 5.18153 23008 ft 404 kts 102°
2026-05-06 07:52 36.45920 5.21611 23008 ft 403 kts 102°
2026-05-06 07:53 36.45522 5.25013 23010 ft 404 kts 102°
2026-05-06 07:53 36.45116 5.28476 23010 ft 405 kts 102°
2026-05-06 07:53 36.44710 5.31932 23011 ft 403 kts 102°
2026-05-06 07:53 36.44304 5.35368 23018 ft 403 kts 102°
2026-05-06 07:54 36.43903 5.38786 23020 ft 404 kts 102°
2026-05-06 07:54 36.43492 5.42257 23022 ft 404 kts 102°
2026-05-06 07:54 36.43089 5.45667 23021 ft 403 kts 102°
2026-05-06 07:54 36.42679 5.49084 23021 ft 403 kts 102°
2026-05-06 07:55 36.42268 5.52552 23022 ft 402 kts 102°
2026-05-06 07:55 36.41862 5.55958 23022 ft 403 kts 102°
2026-05-06 07:55 36.41452 5.59372 23020 ft 402 kts 102°
2026-05-06 07:55 36.41042 5.62791 23016 ft 401 kts 102°
2026-05-06 07:56 36.40633 5.66197 23013 ft 401 kts 103°
2026-05-06 07:56 36.40220 5.69621 22789 ft 401 kts 103°
2026-05-06 07:56 36.39808 5.73042 22493 ft 396 kts 102°
2026-05-06 07:56 36.39399 5.76410 22182 ft 396 kts 102°
2026-05-06 07:57 36.38994 5.79744 21811 ft 393 kts 102°
2026-05-06 07:57 36.38588 5.83063 21432 ft 391 kts 102°
2026-05-06 07:57 36.38183 5.86411 21014 ft 389 kts 102°
2026-05-06 07:57 36.37799 5.89673 20547 ft 388 kts 102°
2026-05-06 07:58 36.37412 5.92995 20086 ft 386 kts 102°
2026-05-06 07:58 36.37033 5.96255 19641 ft 385 kts 102°
2026-05-06 07:58 36.36652 5.99522 19210 ft 382 kts 102°
2026-05-06 07:58 36.36272 6.02783 18783 ft 380 kts 102°
2026-05-06 07:59 36.35892 6.06025 18361 ft 378 kts 102°
2026-05-06 07:59 36.35521 6.09195 17943 ft 376 kts 102°
2026-05-06 07:59 36.35139 6.12417 17519 ft 374 kts 102°
2026-05-06 07:59 36.34765 6.15590 17109 ft 372 kts 102°
2026-05-06 08:00 36.34391 6.18748 16688 ft 370 kts 102°
2026-05-06 08:00 36.34020 6.21864 16295 ft 367 kts 102°
2026-05-06 08:00 36.33649 6.24991 15888 ft 365 kts 103°
2026-05-06 08:00 36.33280 6.28068 15493 ft 362 kts 103°
2026-05-06 08:01 36.32912 6.31134 15094 ft 360 kts 103°
2026-05-06 08:01 36.32545 6.34185 14691 ft 357 kts 103°
2026-05-06 08:01 36.32183 6.37205 14312 ft 354 kts 103°
2026-05-06 08:01 36.31823 6.40195 13911 ft 352 kts 103°
2026-05-06 08:02 36.31469 6.43155 13556 ft 348 kts 104°
2026-05-06 08:02 36.31112 6.46107 13203 ft 345 kts 103°
2026-05-06 08:02 36.30753 6.49049 12839 ft 342 kts 103°
2026-05-06 08:02 36.30397 6.51943 12441 ft 340 kts 103°
2026-05-06 08:03 36.30047 6.54827 12049 ft 338 kts 103°
2026-05-06 08:03 36.29682 6.57672 11663 ft 334 kts 106°
2026-05-06 08:03 36.28781 6.60221 11224 ft 319 kts 133°
2026-05-06 08:03 36.27126 6.61915 10796 ft 309 kts 156°
2026-05-06 08:04 36.25122 6.62872 10381 ft 304 kts 162°
2026-05-06 08:04 36.23157 6.63750 10068 ft 298 kts 161°
2026-05-06 08:04 36.21271 6.64613 9990 ft 284 kts 161°
2026-05-06 08:04 36.19445 6.65456 9742 ft 277 kts 161°
2026-05-06 08:05 36.17635 6.66296 9352 ft 275 kts 160°
2026-05-06 08:05 36.15862 6.67153 8978 ft 274 kts 155°
2026-05-06 08:05 36.14375 6.68573 8607 ft 274 kts 133°
2026-05-06 08:05 36.13185 6.70421 8237 ft 274 kts 128°
2026-05-06 08:06 36.12060 6.72307 7866 ft 274 kts 127°
2026-05-06 08:06 36.10925 6.74196 7599 ft 269 kts 127°
2026-05-06 08:06 36.09824 6.75996 7353 ft 263 kts 127°
2026-05-06 08:06 36.08718 6.77775 7104 ft 257 kts 127°
2026-05-06 08:07 36.07627 6.79501 6910 ft 249 kts 127°
2026-05-06 08:07 36.06544 6.81097 6880 ft 235 kts 137°
2026-05-06 08:07 36.05125 6.81895 6870 ft 224 kts 174°
2026-05-06 08:07 36.03619 6.81672 6885 ft 217 kts 199°
2026-05-06 08:08 36.02353 6.80727 6874 ft 209 kts 223°
2026-05-06 08:08 36.01435 6.79328 6898 ft 210 kts 234°
2026-05-06 08:08 36.00809 6.77718 6884 ft 212 kts 258°
2026-05-06 08:08 36.00798 6.75908 6893 ft 212 kts 286°
2026-05-06 08:09 36.01483 6.74359 6892 ft 208 kts 319°
2026-05-06 08:09 36.02664 6.73313 6904 ft 206 kts 336°
2026-05-06 08:09 36.03974 6.72614 6897 ft 205 kts 342°
2026-05-06 08:09 36.05308 6.72025 6764 ft 205 kts 343°
2026-05-06 08:10 36.06661 6.71434 6494 ft 205 kts 343°
2026-05-06 08:10 36.07992 6.70836 6218 ft 205 kts 343°
2026-05-06 08:10 36.09321 6.70221 5963 ft 202 kts 342°
2026-05-06 08:10 36.10615 6.69611 5735 ft 195 kts 342°
2026-05-06 08:11 36.11869 6.69018 5435 ft 189 kts 342°
2026-05-06 08:11 36.13066 6.68452 5173 ft 177 kts 342°
2026-05-06 08:11 36.14178 6.67925 4904 ft 167 kts 342°
2026-05-06 08:11 36.15229 6.67430 4655 ft 156 kts 342°
2026-05-06 08:12 36.16220 6.66964 4441 ft 151 kts 342°
2026-05-06 08:12 36.17206 6.66501 4251 ft 150 kts 342°
2026-05-06 08:12 36.18187 6.66041 4065 ft 150 kts 341°
2026-05-06 08:12 36.19154 6.65586 3871 ft 150 kts 341°
2026-05-06 08:13 36.20136 6.65125 3664 ft 149 kts 342°
2026-05-06 08:13 36.21107 6.64669 3459 ft 149 kts 341°
2026-05-06 08:13 36.22075 6.64215 3248 ft 148 kts 341°
2026-05-06 08:13 36.23032 6.63768 3047 ft 147 kts 341°
2026-05-06 08:14 36.24000 6.63342 2824 ft 147 kts 342°
2026-05-06 08:14 36.24949 6.62905 2589 ft 146 kts 341°
2026-05-06 08:14 36.25907 6.62439 2422 ft 146 kts 340°
2026-05-06 08:14 36.26845 6.61991 2321 ft 139 kts 340°
2026-05-06 08:15 36.27533 6.61674 2319 ft 62 kts 338°
2026-05-06 08:15 36.27801 6.61553 2317 ft 17 kts 342°
2026-05-06 08:15 36.27849 6.61573 2315 ft 4 kts 73°
2026-05-06 08:15 36.27862 6.61630 2313 ft 9 kts 72°
2026-05-06 08:16 36.27893 6.61732 2307 ft 15 kts 69°
2026-05-06 08:16 36.27934 6.61863 2300 ft 15 kts 69°
2026-05-06 08:16 36.27969 6.61970 2294 ft 12 kts 59°
2026-05-06 08:16 36.28033 6.62061 2290 ft 15 kts 47°
2026-05-06 08:17 36.28100 6.62134 2284 ft 12 kts 17°
2026-05-06 08:17 36.28162 6.62106 2284 ft 8 kts 324°
2026-05-06 08:17 36.28207 6.62103 2284 ft 7 kts 27°
2026-05-06 08:17 36.28248 6.62148 2280 ft 7 kts 27°
2026-05-06 08:18 36.28294 6.62126 2281 ft 5 kts 321°
2026-05-06 08:18 36.28309 6.62099 2283 ft 3 kts 288°
2026-05-06 08:18 36.28312 6.62055 2286 ft 6 kts 271°
2026-05-06 08:18 36.28312 6.62031 2288 ft 5 kts 268°
2026-05-06 08:19 36.28312 6.62029 2288 ft 0 kts 268°